📊 Raw Sensor Data

Showing records 47276 to 47300 of 85,082 total

ID Distance (ft) Battery V Battery A Int Temp (°F) Int Humid (%) Ext Temp (°F) Solar V RSSI SNR Time Stamp
37819 -- 3.82 0 92 48 81 5.10 -68 9 04/14/2025 06:15 PM
37818 -- 3.85 0 95 47 89 5.10 -70 8 04/14/2025 06:01 PM
37817 -- 3.82 0 98 45 86 5.10 -69 8 04/14/2025 05:45 PM
37816 -- 3.82 0 99 44 88 5.10 -70 9 04/14/2025 05:30 PM
37815 15.8 3.82 0 99 44 86 5.10 -69 8 04/14/2025 05:15 PM
37814 -- 4.01 0 102 42 88 5.10 -69 8 04/14/2025 05:01 PM
37813 -- 3.82 0 103 41 89 5.10 -69 8 04/14/2025 04:45 PM
37812 -- 3.82 0 102 41 90 5.10 -70 8 04/14/2025 04:31 PM
37811 -- 3.88 0 101 41 90 5.10 -69 8 04/14/2025 04:16 PM
37810 -- 3.82 0 101 40 86 5.10 -69 8 04/14/2025 04:00 PM
37809 -- 3.82 0 101 40 86 5.10 -69 8 04/14/2025 03:45 PM
37808 -- 3.82 0 102 38 86 5.10 -70 8 04/14/2025 03:30 PM
37807 -- 3.82 0 102 37 89 5.10 -69 8 04/14/2025 03:15 PM
37806 -- 3.86 0 99 37 88 5.10 -70 8 04/14/2025 03:01 PM
37805 -- 3.84 0 96 38 83 5.10 -70 9 04/14/2025 02:45 PM
37804 -- 3.82 0 96 37 86 5.10 -69 8 04/14/2025 02:30 PM
37803 -- 4.08 0 94 37 85 5.10 -70 9 04/14/2025 02:15 PM
37802 -- 3.82 0 92 37 82 5.10 -68 8 04/14/2025 02:00 PM
37801 -- 3.82 0 91 37 79 5.10 -70 9 04/14/2025 01:45 PM
37800 -- 3.82 0 89 38 82 5.10 -69 8 04/14/2025 01:30 PM
37799 -- 3.82 0 86 38 79 5.10 -70 9 04/14/2025 01:15 PM
37798 -- 3.82 0 85 38 78 5.10 -70 9 04/14/2025 01:00 PM
37797 -- 3.87 0 83 39 78 5.10 -69 8 04/14/2025 12:45 PM
37796 -- 3.92 0 82 39 76 5.10 -68 9 04/14/2025 12:30 PM
37795 -- 3.82 0 81 39 75 5.10 -70 9 04/14/2025 12:15 PM